User: anonymous   Login
Location: Ellerstadt
(49.4644°N, 8.2615°E)
Time: 00:49:24
(UTC+00:00)
Language:

Cosmos 2242 Rocket - Orbit

View from above orbital plane
View from above orbital plane
View from above satellite
View from above satellite

Ground track
Ground track

The orbit data is extracted from the following two-line orbital elements,

1 22627U 93024B   21138.72471741  .00000076  00000-0  73060-5 0  9999
2 22627  82.5245 210.6523 0022714 333.3574  26.6469 14.78207579513619
Epoch (UTC): 18 May 2021 17:23:35
Eccentricity: 0.0022714
inclination: 82.5245°
perigee height: 619 km
apogee height: 651 km
right ascension of ascending node: 210.6523°
argument of perigee: 333.3574°
revolutions per day: 14.78207579
mean anomaly at epoch: 26.6469°
orbit number at epoch: 51361

The dashed part of the orbit path shows where the satellite is in the earth's shadow,  

DLR